Location: Lafig�re
(44.4503°N, 4.0357°E)
Time: 15:41:53
(UTC+00:00)

Vanguard 2 Rocket - Pass Details

Date: 26 January 2021
Orbit: 554 x 3325 km, 32.9° (Epoch: 06 March)

Event Time Altitude Azimuth Distance (km) Brightness Sun altitude
Rises 11:19:04 0° 198° (SSW) 7,286 12.5 26.4°
Reaches altitude 10° 11:26:28 10° 184° (S) 6,095 12.8 26.6°
Maximum altitude 11:37:23 19° 148° (SSE) 4,791 11.9 26.8°
Drops below altitude 10° 11:46:10 10° 110° (ESE) 4,811 11.0 26.9°
Sets 11:50:50 0° 94° (E) 5,344 10.9 27.0°
